Munising, MI

10:32 PM EST on December 10, 2016 (GMT -0500)
Munising

Weather History for KP53 - January, 2014

Change the Weather History Date:

Thursday, January 23, 2014

  Actual Average (KISQ) Record (KISQ)
Temperature  
Mean Temperature 1 °F -  
Max Temperature 10 °F 29 °F 45 °F (1967)
Min Temperature -8 °F 11 °F -24 °F (1963)
Degree Days  
Heating Degree Days 64    
Moisture  
Dew Point -3 °F    
Average Humidity 70    
Maximum Humidity 80    
Minimum Humidity 56    
Precipitation  
Precipitation 0.13 in - - ()
Sea Level Pressure  
Sea Level Pressure 30.36 in    
Wind  
Wind Speed 7 mph (NNW)    
Max Wind Speed 18 mph    
Max Gust Speed 23 mph    
Averages and records for this station are not official NWS values.
T = Trace of Precipitation, MM = Missing Value Source: NWS Daily Summary

Daily Weather History Graph

Daily Weather History Graph

Search for Another Location

Airport or City:

Trip Planner

Search our weather history database for the weather conditions in past years. The results will help you decide how hot, cold, wet, or windy it might be!

Date:

Astronomy

Jan. 23, 2014 Rise Set
Actual Time 8:19 AM EST 5:37 PM EST
Civil Twilight 7:46 AM EST 6:10 PM EST
Nautical Twilight 7:09 AM EST 6:47 PM EST
Astronomical Twilight 6:34 AM EST 7:23 PM EST
Moon 12:34 AM EST (1/23) 11:27 AM EST (1/23)
Length of Visible Light 10h 24m
Length of Day
9h 18m
Waning Gibbous, 55% of the Moon is Illuminated
Jan 23
Waning Gibbous
Jan 24
Last Quarter
Jan 30
New
Feb 6
First Quarter
Feb 14
Full

Hourly Weather History & Observations

Time (EST) Temp. Windchill Dew Point Humidity Pressure Visibility Wind Dir Wind Speed Gust Speed Precip Events Conditions
12:56 AM 1.9 °F - -4.0 °F 76% 30.14 in - Calm Calm - N/A   Unknown
1:56 AM 1.9 °F - -4.0 °F 76% 30.16 in - Calm Calm - N/A   Unknown
2:56 AM 5.0 °F -2.1 °F -2.0 °F 73% 30.21 in - Variable 3.5 mph - N/A   Unknown
3:56 AM 8.1 °F - 1.9 °F 76% 30.24 in - Calm Calm - N/A   Unknown
4:56 AM 6.1 °F - -0.0 °F 76% 30.27 in - Calm Calm - 0.02 in   Unknown
5:52 AM 10.4 °F -7.7 °F 3.2 °F 73% 30.25 in - NNE 18.4 mph - N/A   Unknown
5:56 AM 10.9 °F -6.5 °F 3.0 °F 70% 30.31 in - NNE 17.3 mph - N/A   Unknown
6:56 AM 10.0 °F -5.9 °F 3.9 °F 76% 30.34 in - North 13.8 mph - 0.02 in   Unknown
7:56 AM 8.1 °F -8.4 °F -0.0 °F 70% 30.38 in - NNE 13.8 mph - N/A   Unknown
8:56 AM 9.0 °F -6.6 °F 1.0 °F 70% 30.42 in - NNE 12.7 mph - 0.01 in   Unknown
9:56 AM 8.1 °F -10.7 °F 1.9 °F 76% 30.44 in - North 18.4 mph - N/A   Unknown
10:56 AM 7.0 °F -11.6 °F -2.9 °F 64% 30.46 in - North 17.3 mph - 0.01 in   Unknown
11:56 AM 9.0 °F -8.5 °F -2.9 °F 59% 30.47 in - North 16.1 mph - N/A   Unknown
12:56 PM 9.0 °F -5.9 °F 1.0 °F 70% 30.47 in - North 11.5 mph - 0.01 in   Unknown
1:56 PM 10.0 °F -2.9 °F -2.9 °F 56% 30.46 in - North 9.2 mph - N/A   Unknown
2:56 PM 10.0 °F -5.2 °F 1.0 °F 67% 30.45 in - NNW 12.7 mph - 0.02 in   Unknown
3:56 PM 7.0 °F -8.3 °F -0.0 °F 73% 30.46 in - West 11.5 mph 21.9 mph 0.03 in   Unknown
4:56 PM 6.1 °F -11.6 °F -4.0 °F 63% 30.47 in - NW 15.0 mph 23.0 mph 0.01 in   Unknown
5:56 PM 3.9 °F -8.2 °F -7.1 °F 60% 30.47 in - NW 6.9 mph - N/A   Unknown
6:56 PM 3.0 °F -9.3 °F -8.0 °F 60% 30.45 in - West 6.9 mph - N/A   Unknown
7:56 PM -5.1 °F -15.8 °F -9.9 °F 80% 30.44 in - SSW 4.6 mph - N/A   Unknown
8:56 PM -7.1 °F -19.9 °F -13.0 °F 75% 30.41 in - SSW 5.8 mph - N/A   Unknown
9:56 PM -8.0 °F -21.0 °F -15.0 °F 71% 30.36 in - SSW 5.8 mph - N/A   Unknown
10:56 PM -7.1 °F -21.4 °F -14.1 °F 72% 30.31 in - SSW 6.9 mph - N/A   Unknown
11:56 PM -2.9 °F -16.5 °F -11.9 °F 65% 30.27 in - SSW 6.9 mph - N/A   Unknown